Probability
0 0 0 0 0 0 0 0 0 0 0 0 0 1 1 1 1 2 7 14 17 16 17 27 41 49 52 56 58 59 56 49 39 25 14 7 4 1 0 0 0 0 0 0 0 0 0 0 0
0 0 0 0 0 0 0 0 0 0 0 0 1 2 2 2 2 4 11 18 20 21 23 33 46 53 54 56 57 57 55 50 41 28 16 8 3 2 1 0 0 0 0 0 0 0 0 0 0
0 0 0 0 0 0 0 0 0 0 0 1 2 3 3 3 3 5 12 22 27 28 29 39 52 58 57 57 56 54 53 50 43 32 19 8 3 1 1 0 0 0 0 0 0 0 0 0 0
0 0 0 0 0 0 0 0 0 0 0 1 2 3 4 3 4 6 14 25 31 30 30 42 56 62 60 58 54 52 50 47 42 33 21 9 2 1 1 1 1 1 0 0 0 0 0 0 0
0 0 0 0 0 0 0 0 0 0 0 0 2 3 4 4 5 10 17 25 27 25 28 41 57 64 62 59 54 51 50 47 41 34 22 10 4 2 3 3 2 1 0 0 0 0 0 0 0
0 0 0 0 0 0 0 0 0 0 0 0 2 3 4 4 6 11 17 21 22 22 27 40 54 62 65 63 59 55 53 51 45 35 24 14 9 7 6 4 3 1 0 0 0 0 0 0 0
0 0 0 0 0 0 0 0 0 0 0 0 1 3 3 3 5 9 15 18 20 23 29 40 50 57 62 64 63 59 55 51 45 36 27 19 13 9 7 5 3 1 0 0 0 0 0 0 0
0 0 0 0 0 0 0 0 0 0 0 0 1 2 2 2 3 8 13 16 17 22 30 40 48 51 55 57 58 56 51 45 40 32 24 17 10 7 5 4 2 1 0 0 0 0 0 0 0
0 0 0 0 0 0 0 0 0 0 0 0 0 1 1 1 3 7 10 12 13 16 24 32 40 45 47 48 49 49 44 38 31 23 15 9 4 3 2 1 1 0 0 0 0 0 0 0 0
0 0 0 0 0 0 0 0 0 0 0 0 0 0 0 1 2 4 6 6 7 11 16 22 28 34 38 39 41 42 38 30 22 15 8 5 2 1 0 0 0 0 0 0 0 0 0 0 0
0 0 0 0 0 0 0 0 0 0 0 0 0 0 0 0 1 3 3 2 3 6 11 14 19 24 26 29 33 35 32 23 15 10 7 5 3 1 0 0 0 0 0 0 0 0 0 0 0
0 0 0 0 0 0 0 0 0 0 0 0 0 0 0 0 1 2 2 1 1 3 6 9 13 17 18 21 26 28 26 18 12 10 8 6 4 2 1 0 0 0 0 0 0 0 0 0 0
0 0 0 0 0 0 0 0 0 0 0 0 0 0 0 0 0 1 2 1 1 1 2 5 9 11 13 16 21 23 20 16 13 11 9 6 3 2 1 0 0 0 0 0 0 0 0 0 0
0 0 0 0 0 0 0 0 0 0 0 0 0 0 0 0 0 0 1 1 0 0 1 2 4 6 6 9 15 17 14 11 11 10 7 4 2 1 0 0 0 0 0 0 0 0 0 0 0
0 0 0 0 0 0 0 0 0 0 0 0 0 0 0 0 0 0 0 0 0 0 0 1 1 2 2 3 9 11 8 6 8 7 5 2 1 1 0 0 0 0 0 0 0 0 0 0 0
0 0 0 0 0 0 0 0 0 0 0 0 0 0 0 0 0 0 0 0 1 1 1 0 0 0 0 1 4 6 4 3 5 5 3 1 0 0 0 0 0 0 0 0 0 0 0 0 0
0 0 0 0 0 0 0 0 0 0 0 0 0 0 0 0 0 0 0 0 1 1 1 1 1 0 0 0 1 2 2 2 4 4 3 1 0 0 0 0 0 0 0 0 0 0 0 0 0
0 0 0 0 0 0 0 0 0 0 0 0 0 0 0 0 0 0 0 0 1 1 1 2 1 0 0 0 0 0 1 1 2 3 2 1 0 0 0 0 0 0 0 0 0 0 0 0 0
0 0 0 0 0 0 0 0 0 0 0 0 0 0 0 0 0 0 0 0 1 2 2 1 1 1 0 0 0 0 0 1 2 2 1 0 0 0 0 0 0 0 0 0 0 0 0 0 0
0 0 0 0 0 0 0 0 0 0 0 0 0 0 0 0 0 0 0 0 1 2 3 2 1 1 1 0 0 0 0 0 1 1 1 0 0 0 0 0 0 0 0 0 0 0 0 0 0
0 0 0 0 0 0 0 0 0 0 0 0 0 0 0 0 0 0 0 0 0 1 2 2 1 1 2 1 0 0 0 0 0 0 0 0 0 0 0 0 0 0 0 0 0 0 0 0 0
0 0 0 0 0 0 0 0 0 0 0 0 0 0 0 0 0 0 0 0 0 0 0 0 0 1 2 2 1 0 0 0 0 0 0 1 0 0 0 0 0 0 0 0 0 0 1 0 0
0 0 0 0 0 0 0 0 0 0 0 0 0 0 0 0 0 0 0 0 0 0 0 0 0 1 2 3 2 0 0 0 0 0 0 0 0 0 0 0 0 0 0 0 0 0 0 0 0
0 0 0 0 0 0 0 0 0 0 0 0 0 0 0 0 0 0 0 0 0 0 0 0 0 0 1 2 1 0 0 0 0 0 0 0 0 0 0 0 0 0 0 0 0 0 0 0 0
0 0 0 0 0 0 0 0 0 0 0 0 0 0 0 0 0 0 0 0 0 0 0 0 0 0 0 0 0 0 0 0 0 0 0 0 0 0 0 0 0 0 0 0 0 0 0 0 0
0 0 0 0 0 0 0 0 0 0 0 0 0 0 0 0 0 0 0 0 0 0 0 0 0 0 0 0 0 0 0 0 0 0 0 0 0 0 0 0 0 0 0 0 0 0 0 0 0
0 0 0 0 0 0 0 0 0 0 0 0 0 0 0 0 0 0 0 0 0 0 0 0 0 0 0 0 0 0 0 0 0 0 0 0 0 0 0 0 1 0 0 0 0 0 0 0 0
0 0 0 0 0 0 0 0 0 0 0 0 0 0 0 0 0 0 0 0 0 0 0 0 0 0 0 0 0 0 0 0 0 0 0 0 0 0 0 0 0 0 1 1 0 0 0 0 0
0 0 0 0 0 0 0 0 0 0 0 0 0 0 0 0 0 0 0 0 0 0 0 0 0 0 0 0 0 0 0 0 0 0 0 0 0 0 0 0 0 0 1 1 0 0 0 0 0
0 0 0 0 0 0 0 0 0 0 0 0 0 0 0 0 0 0 0 0 0 0 0 0 0 0 0 0 0 0 0 0 0 0 0 0 0 0 0 0 0 0 1 1 0 0 0 0 0
Wind_Speed
7 5 2 4 4 1 7 7 4 3 4 4 3 3 4 5 4 5 1 6 10 14 14 16 17 17 17 17 16 16 16 16 16 17 17 17 17 17 17 16 16 16 16 16 16 15 15 15 14
3 2 4 4 3 6 7 6 8 9 6 4 5 3 2 3 1 2 2 6 13 14 13 13 16 16 16 16 16 16 17 17 16 16 17 17 17 17 17 16 16 16 16 16 15 15 14 13 13
4 2 3 3 5 8 7 4 7 7 7 5 4 3 2 2 1 1 2 8 12 12 11 13 17 17 16 16 16 16 16 16 16 16 17 17 17 17 17 16 16 15 15 15 15 14 13 12 11
3 4 3 2 10 7 6 4 3 5 6 4 2 5 3 1 1 2 5 8 10 10 9 12 17 17 16 15 16 16 16 17 16 16 16 17 18 17 17 16 15 15 15 15 14 13 12 10 9
3 4 2 6 9 5 5 7 7 7 6 4 3 4 4 4 2 5 7 8 8 7 8 11 17 17 16 16 16 16 16 17 17 16 17 17 18 17 17 16 16 16 15 15 14 13 11 10 8
3 3 3 8 8 4 5 5 6 7 7 5 3 3 3 3 3 4 5 6 7 7 7 10 16 15 15 16 16 16 16 16 16 16 16 17 17 17 17 17 16 16 15 14 13 12 11 9 7
4 3 5 5 4 5 6 3 4 5 6 6 3 3 3 2 3 1 4 5 5 5 6 7 9 11 13 14 14 15 15 14 15 15 15 15 15 16 17 17 16 16 15 14 13 12 10 8 6
4 3 4 4 4 5 2 2 2 3 6 5 2 3 3 3 3 2 3 4 4 3 4 5 7 7 7 9 12 13 13 13 14 14 13 13 14 15 15 14 14 15 14 13 12 11 9 7 5
3 2 5 5 4 4 2 4 4 4 3 3 2 2 4 3 2 2 2 2 3 4 3 4 6 7 7 7 10 10 12 12 12 11 13 12 9 10 10 11 13 13 13 12 12 10 8 5 3
4 5 7 5 3 3 4 5 5 5 5 4 5 5 5 3 2 0 2 3 4 5 4 4 5 6 7 7 6 5 6 7 7 7 9 7 7 6 8 11 12 12 11 11 10 9 7 3 1
5 7 5 6 6 6 7 7 5 6 9 6 6 8 7 5 4 2 3 4 4 5 5 4 4 5 6 5 5 4 4 4 5 7 8 7 6 5 6 5 6 7 8 5 6 5 3 2 2
5 6 7 6 6 7 8 7 8 10 12 8 8 7 7 6 6 5 5 4 4 5 5 5 4 5 6 5 5 5 5 5 5 6 8 7 5 5 5 4 5 4 3 4 3 3 3 3 3
6 6 7 9 9 9 9 10 10 12 12 10 8 7 9 9 8 7 6 5 4 6 6 6 5 6 6 6 6 6 6 6 6 6 7 7 6 7 6 5 5 5 4 4 4 4 4 4 3
4 5 8 9 10 8 11 12 9 13 10 10 9 10 10 11 9 7 6 6 6 6 7 7 7 6 7 6 6 6 6 6 6 6 7 8 7 7 7 6 6 5 5 5 5 5 4 3 3
3 5 8 8 8 6 5 11 11 12 9 10 11 11 10 11 9 9 8 8 7 7 7 7 7 7 7 8 7 6 6 6 6 6 8 8 8 8 7 7 6 6 5 5 4 4 3 3 3
2 2 5 6 4 5 4 12 9 7 7 10 10 10 9 10 9 9 8 8 8 7 7 7 6 7 8 7 7 6 6 6 6 6 7 8 8 9 7 6 6 6 5 5 4 4 3 3 3
2 3 6 6 4 3 5 11 9 7 8 10 9 9 9 9 8 8 7 8 7 7 7 6 6 7 7 7 6 6 6 6 6 5 6 7 9 9 7 6 6 6 5 4 5 3 3 3 3
4 4 5 5 4 4 8 13 12 8 8 9 9 8 8 9 9 7 7 7 6 7 7 6 6 7 6 5 4 4 5 5 5 5 6 8 7 9 7 6 6 6 5 4 4 4 3 3 3
5 6 9 9 6 6 9 12 12 8 6 6 6 6 7 8 7 6 5 5 6 7 7 7 7 7 6 5 5 5 5 5 5 5 7 7 7 8 8 6 7 7 6 6 6 4 4 2 2
8 8 8 8 5 5 7 10 9 8 6 6 5 5 5 4 4 3 4 4 5 7 6 6 7 7 7 6 5 4 4 4 4 4 6 7 8 8 8 8 7 7 6 6 6 4 3 2 3
8 8 6 6 6 4 4 7 5 6 4 3 3 3 3 4 3 2 3 4 4 5 6 6 6 6 6 5 4 4 3 3 3 4 4 6 7 8 8 8 7 7 7 7 7 6 6 4 3
6 5 6 5 4 3 2 4 5 6 6 6 5 4 2 1 1 1 1 1 2 3 4 5 6 6 5 6 5 6 5 4 4 3 4 4 5 6 7 7 7 7 5 6 6 6 5 6 4
5 3 3 4 3 3 2 1 6 6 7 8 7 5 2 2 2 2 1 1 1 1 3 4 5 4 4 5 6 6 5 3 2 3 4 4 5 6 7 7 7 6 5 6 6 5 5 4 5
2 2 3 1 0 2 2 1 4 5 8 8 7 7 6 4 4 3 3 3 2 2 3 4 5 4 4 4 4 5 5 4 4 4 5 4 4 4 6 6 6 6 5 6 6 6 6 5 5
0 1 3 4 2 1 2 1 3 6 7 6 6 6 6 5 4 4 4 4 3 3 4 4 5 4 4 4 3 4 4 5 4 4 5 5 4 4 6 5 6 5 5 5 5 5 6 6 6
1 1 1 0 1 2 3 2 3 6 6 6 6 6 6 5 5 6 5 4 4 4 4 4 5 4 4 4 3 2 3 2 2 2 3 4 3 4 5 5 5 6 6 5 5 4 5 5 6
1 1 2 2 0 1 2 2 3 6 7 7 8 8 8 7 7 7 6 6 5 5 4 4 5 5 4 4 4 3 2 1 1 1 2 2 2 2 4 5 5 5 6 6 6 5 5 5 6
1 1 1 1 1 1 2 2 3 5 5 6 7 8 8 8 8 8 7 7 6 6 5 6 6 5 4 4 3 2 2 2 1 1 1 1 1 2 3 3 4 5 5 5 5 5 5 5 5
2 2 0 1 1 2 0 2 3 1 2 4 5 6 7 8 8 8 8 8 8 8 8 7 7 6 5 4 4 3 3 3 3 2 2 1 1 2 3 3 4 4 5 5 5 6 5 6 6
1 1 0 1 1 1 2 2 4 2 3 4 5 6 7 8 8 8 9 9 9 9 8 8 7 6 5 4 4 4 4 4 3 2 2 1 1 1 2 2 3 4 4 5 6 6 7 7 8
Wind_Direction
346 346 46 59 70 204 233 233 234 233 227 217 242 240 220 217 208 231 268 140 141 152 160 163 163 162 161 160 158 156 155 156 153 152 149 146 143 141 140 138 135 132 127 123 119 116 115 113 110
349 359 59 74 141 211 243 227 229 245 253 307 304 282 273 249 210 127 118 151 146 152 158 162 163 162 162 160 160 159 159 159 157 156 154 151 148 146 144 141 138 134 128 124 120 118 118 117 112
344 43 92 119 191 203 221 223 221 253 279 287 293 294 261 246 134 162 180 150 145 151 157 162 163 163 164 162 161 161 162 161 159 159 158 155 153 150 148 146 140 134 129 126 124 124 123 120 113
47 53 68 188 227 221 221 268 313 311 309 290 293 298 294 311 200 168 133 138 143 151 156 163 164 165 165 163 163 164 165 164 162 160 159 158 156 153 150 145 139 135 133 131 130 130 129 124 114
64 89 161 235 236 241 257 283 300 297 289 294 311 279 287 330 47 110 123 130 139 154 160 165 165 166 166 165 164 165 166 164 163 162 162 161 158 153 149 144 141 139 138 137 137 137 136 131 120
68 93 188 234 240 247 257 269 289 283 279 290 291 267 267 351 53 108 123 131 141 152 162 166 168 168 168 167 167 167 165 164 164 165 164 162 159 154 150 148 146 145 144 143 143 142 142 139 130
121 143 218 234 245 253 254 266 262 276 281 274 269 259 267 343 1 46 109 118 130 144 157 166 167 169 169 168 167 166 164 165 165 164 163 160 157 154 153 152 152 150 149 148 147 147 149 148 141
141 147 233 230 226 245 260 285 268 278 272 278 274 234 252 292 336 39 89 106 119 131 153 167 165 162 166 167 167 165 163 162 162 160 156 154 152 153 153 153 154 154 154 154 154 156 159 158 155
117 173 229 224 216 238 319 322 302 291 266 284 278 258 273 307 354 58 81 107 131 146 161 173 169 165 164 166 166 161 159 159 157 155 152 148 148 149 153 155 156 156 157 159 161 164 166 166 174
144 210 230 229 235 264 289 288 296 306 292 282 289 296 310 327 350 25 198 194 176 174 176 174 172 169 167 171 161 159 159 156 155 155 152 149 149 152 154 156 158 159 161 165 168 172 172 168 179
186 217 237 250 258 266 274 278 269 264 268 257 268 287 298 303 298 257 239 230 213 187 180 174 179 174 172 169 162 161 155 152 152 157 156 150 148 150 150 154 158 158 161 164 170 169 170 180 193
230 240 244 257 262 262 263 268 267 245 251 252 249 262 273 274 268 249 239 239 233 207 191 182 188 184 177 174 174 166 162 160 161 165 161 156 156 157 159 162 162 162 165 167 169 172 186 198 208
242 262 268 268 269 262 264 257 260 259 260 260 255 258 260 260 259 250 240 222 219 216 199 188 190 195 184 176 181 171 170 169 167 165 169 167 163 165 166 168 168 170 170 174 176 181 191 202 213
249 266 280 276 269 263 257 263 257 260 264 263 257 255 253 252 249 249 242 227 216 219 206 188 190 196 189 184 183 173 173 171 168 170 174 173 168 168 170 171 173 176 178 180 182 186 190 203 201
282 290 291 269 256 252 256 267 245 257 260 257 258 257 252 248 244 239 231 223 215 215 207 193 191 190 186 184 185 175 174 171 173 173 173 174 172 172 171 172 177 182 179 179 181 188 186 194 194
296 282 280 269 240 240 221 265 262 255 253 252 253 255 252 250 241 237 232 224 211 205 198 191 191 185 185 181 180 173 173 172 176 174 172 174 177 175 171 174 182 182 178 178 182 185 179 190 187
260 255 258 275 240 237 229 268 276 270 255 254 254 253 253 252 245 235 229 223 210 197 188 182 184 183 181 173 171 169 173 178 175 172 175 178 180 180 175 178 181 178 179 182 188 185 176 180 183
237 248 261 263 263 262 264 271 282 279 256 250 251 251 250 249 245 231 221 219 205 192 181 177 179 178 176 166 155 159 170 179 177 176 180 178 181 182 178 177 180 180 181 182 183 177 175 177 174
246 259 274 275 266 266 263 276 288 287 277 265 256 247 246 249 250 229 214 212 192 183 178 183 178 175 168 166 165 170 180 180 181 182 182 182 184 183 181 179 180 182 187 185 180 171 173 178 155
247 262 272 284 275 271 277 286 293 296 273 257 254 252 249 248 241 227 216 207 193 185 185 188 182 179 174 178 172 170 168 175 179 183 183 188 188 187 186 182 184 184 183 181 181 167 166 179 171
252 243 252 270 307 295 300 303 309 311 305 307 305 276 247 226 227 217 214 204 187 181 181 185 180 178 176 171 156 149 148 147 168 186 189 194 190 189 188 186 182 184 183 187 187 178 174 182 197
262 240 238 265 300 306 343 311 320 329 346 355 348 337 325 268 202 139 187 192 186 185 170 169 163 167 171 167 168 168 175 178 185 187 191 198 191 186 186 185 185 185 185 188 190 184 179 172 185
238 255 251 258 262 295 313 258 311 338 354 354 354 355 2 51 72 59 50 143 167 155 151 158 145 148 159 160 169 173 175 175 168 172 181 196 193 189 191 184 182 183 187 190 190 184 182 182 185
236 293 277 256 127 327 318 186 318 341 338 347 3 15 24 37 49 41 26 42 61 98 131 132 134 137 134 138 153 167 165 164 168 176 182 196 196 194 197 188 186 187 187 192 194 191 188 191 191
105 15 18 17 21 298 326 67 318 328 339 353 6 18 22 28 41 40 29 36 52 85 109 119 124 121 119 118 129 147 154 160 173 181 189 192 195 198 199 194 192 191 193 196 195 195 198 194 194
254 177 142 152 285 318 354 8 321 331 352 10 25 33 33 38 41 41 34 36 51 71 87 99 99 98 98 105 111 119 124 150 171 190 193 197 198 198 195 193 196 197 194 196 195 200 208 200 201
284 276 201 144 55 3 342 339 335 1 19 25 26 31 30 37 39 35 31 39 50 57 66 90 96 89 84 88 91 93 99 119 154 172 169 182 183 190 189 192 198 200 200 198 195 204 208 204 208
204 223 74 106 115 43 343 343 341 347 9 19 26 29 29 33 31 30 37 37 44 49 56 70 79 82 76 74 77 67 68 87 109 113 104 151 174 191 178 184 195 203 205 202 199 206 207 208 215
342 356 40 136 140 137 69 319 327 324 19 34 36 35 33 37 36 32 35 36 43 47 49 54 58 65 65 63 66 64 56 66 70 65 57 69 159 188 187 197 200 207 210 208 208 212 205 211 216
215 296 299 106 15 81 120 319 347 42 53 55 47 43 39 40 38 35 36 37 41 43 43 44 46 53 55 58 61 58 53 57 62 49 36 38 30 206 198 212 219 220 218 215 214 217 214 213 214